Regional Weather Roundup
Issued by NWS

Home | Current Version | Previous Version | Graphics & Text | Print | Product List | Glossary On
Versions: 1 2 3 4 5 6 7 8 9 10 11 12 13 14 15 16 17 18 19 20 21 22 23 24 25 26 27 28 29 30 31 32 33 34 35 36 37 38 39 40 41 42 43 44 45 46 47 48 49 50
973
ASUS45 KSLC 230010
RWRUT

UTAH REGIONAL WEATHER ROUNDUP
NATIONAL WEATHER SERVICE SALT LAKE CITY UT
600 PM MDT SUN APR 22 2018

UTZ001>011-023>025-230100-

NORTHERN UTAH

CITY           SKY/WX    TMP DP  RH WIND       PRES   REMARKS
BRIGHAM CITY   SUNNY     73  21  14 S7        29.97F
HILL AFB       SUNNY     71  26  18 CALM      29.98F
LOGAN          SUNNY     77  33  20 SW12      29.96F
OGDEN          SUNNY     72  23  16 VRB6      29.96F
SALT LAKE CITY PTSUNNY   76  28  17 NW6       29.95F
TOOELE VALLEY  SUNNY     73  36  25 N12G17    29.95F
WENDOVER       MOSUNNY   77  26  15 E9        29.91F
HEBER CITY       N/A     72  19  14 SW10      30.00S
WEST JORDAN    SUNNY     72  36  27 N6        29.97F

$$

UTZ011>015-024>027-230100-

CENTRAL/NORTHEAST UTAH

CITY           SKY/WX    TMP DP  RH WIND       PRES   REMARKS
PROVO AIRPORT  MOSUNNY   74  27  17 SW6       29.98F
MOAB/CANYONLAN MOSUNNY   74  26  16 W5        29.96F
DELTA          SUNNY     72  19  14 W3        29.98S
PRICE          MOSUNNY   71  24  17 SW9       30.02F
ROOSEVELT      SUNNY     72  27  18 SE6       30.02F
VERNAL         SUNNY     72  23  16 VRB5      30.01F

$$

UTZ013>016-019>022-027-230100-

SOUTHERN UTAH

CITY           SKY/WX    TMP DP  RH WIND       PRES   REMARKS
BRYCE CANYON   CLOUDY    63  18  17 SE6       30.13F
CEDAR CITY     MOSUNNY   72  22  15 W6        30.00F
MILFORD        SUNNY     75  24  15 CALM      29.97F
ST GEORGE      CLEAR     85  21   9 VRB5      29.87F
HANKSVILLE     SUNNY     77  27  15 SE5       29.98F
BLANDING         N/A     68  25  19 SW8       30.12S

$$

REGIONAL REPORTS     COLORADO/ARIZONA

CITY           SKY/WX    TMP DP  RH WIND       PRES   REMARKS
CRAIG, CO      SUNNY     67  31  26 W7        30.07F
GRAND JUNCTION MOSUNNY   73  29  19 CALM      29.99F
RIFLE, CO      MOSUNNY   71  27  19 VRB3      30.03F
MONTROSE, CO   MOSUNNY   68  20  16 NW10      30.05F
CORTEZ, CO     MOSUNNY   70  21  15 W6        30.05S
COLORADO CITY    N/A     79  21  11 NW10      30.00F
PAGE, AZ       MOSUNNY   78  21  12 N9        29.95F
GRAND CANYON   SUNNY     71  12  10 W6        30.08F
KINGMAN, AZ    SUNNY     84  23  10 SW15      29.92S
FLAGSTAFF, AZ  SUNNY     67  18  15 SW13      30.11S

$$

REGIONAL REPORTS    NEVADA/IDAHO/WYOMING

CITY           SKY/WX    TMP DP  RH WIND       PRES   REMARKS
LAS VEGAS, NV  MOSUNNY   89  17   7 SE5       29.82F
ELY, NY        MOSUNNY   70  16  12 W13G21    30.00F
ELKO, NV       MOSUNNY   73  30  20 W16       29.93F
POCATELLO, ID  MOSUNNY   73  31  21 NW7       29.94F
BURLEY, ID     CLOUDY    64  34  32 W12G23    29.95F
FORT BRIDGER,  CLOUDY    66  19  16 CALM      30.09F
EVANSTON, WY   MOSUNNY   65  24  21 W13       30.08F
ROCK SPRINGS,  SUNNY     65  15  14 VRB6      30.07F
KEMMERER, WY   SUNNY     63  18  17 SW8       30.08F

$$




USA.gov is the U.S. government's official web portal to all federal, state and local government web resources and services.